Time,TemperatureF,DewpointF,PressureIn,WindDirection,WindDirectionDegrees,WindSpeedMPH,WindSpeedGustMPH,Humidity,HourlyPrecipIn,Conditions,Clouds,dailyrainin,SoftwareType,DateUTC
2014-01-21 00:04:00,12.7,5.4,30.36,NW,312,16.1,23.0,72,0.00,,,0.00,meteobridge,2014-01-21 06:04:00,
2014-01-21 00:09:00,12.4,5.0,30.37,NNW,331,21.9,29.1,72,0.00,,,0.00,meteobridge,2014-01-21 06:09:00,
2014-01-21 00:11:00,12.2,4.8,30.37,NNW,340,15.0,28.0,72,0.00,,,0.00,meteobridge,2014-01-21 06:11:00,
2014-01-21 00:16:00,11.8,4.3,30.37,NNW,331,21.9,31.1,71,0.00,,,0.00,meteobridge,2014-01-21 06:16:00,
2014-01-21 00:21:00,11.5,3.9,30.37,NNW,334,25.1,28.0,71,0.00,,,0.00,meteobridge,2014-01-21 06:21:00,
2014-01-21 00:27:00,11.3,3.7,30.38,NW,305,14.1,23.0,71,0.00,,,0.00,meteobridge,2014-01-21 06:27:00,
2014-01-21 00:32:00,11.1,3.9,30.38,NNW,343,15.0,21.0,72,0.00,,,0.00,meteobridge,2014-01-21 06:32:00,
2014-01-21 00:37:00,10.9,3.9,30.38,NNW,345,21.9,25.9,73,0.00,,,0.00,meteobridge,2014-01-21 06:37:00,
2014-01-21 00:42:00,10.6,3.6,30.38,NW,311,19.9,25.9,73,0.00,,,0.00,meteobridge,2014-01-21 06:42:00,
2014-01-21 00:47:00,10.0,3.2,30.39,NNW,328,19.9,23.9,73,0.00,,,0.00,meteobridge,2014-01-21 06:47:00,
2014-01-21 00:52:00,9.9,3.2,30.39,NNW,347,19.9,19.9,74,0.00,,,0.00,meteobridge,2014-01-21 06:52:00,
2014-01-21 00:57:00,9.7,3.0,30.40,NNW,332,19.9,23.9,74,0.00,,,0.00,meteobridge,2014-01-21 06:57:00,
2014-01-21 01:02:00,9.5,2.8,30.40,NNW,347,16.1,25.9,74,0.00,,,0.00,meteobridge,2014-01-21 07:02:00,
2014-01-21 01:07:00,9.1,2.5,30.40,NNW,333,14.1,25.9,74,0.00,,,0.00,meteobridge,2014-01-21 07:07:00,
2014-01-21 01:12:00,9.1,2.5,30.40,WNW,285,14.1,21.0,74,0.00,,,0.00,meteobridge,2014-01-21 07:12:00,
2014-01-21 01:17:00,9.0,2.7,30.40,NNW,327,11.0,21.9,75,0.00,,,0.00,meteobridge,2014-01-21 07:17:00,
2014-01-21 01:22:00,8.8,2.5,30.40,NNW,329,21.0,23.9,75,0.00,,,0.00,meteobridge,2014-01-21 07:22:00,
2014-01-21 01:27:00,8.6,2.3,30.41,NW,319,13.0,21.0,75,0.00,,,0.00,meteobridge,2014-01-21 07:27:00,
2014-01-21 01:32:00,8.4,2.1,30.41,NNW,332,16.1,21.0,75,0.00,,,0.00,meteobridge,2014-01-21 07:32:00,
2014-01-21 01:37:00,8.2,1.9,30.41,NNW,331,16.1,21.9,75,0.00,,,0.00,meteobridge,2014-01-21 07:37:00,
2014-01-21 01:42:00,7.9,1.9,30.42,NW,323,14.1,21.9,76,0.00,,,0.00,meteobridge,2014-01-21 07:42:00,
2014-01-21 01:47:00,7.9,1.9,30.42,NNW,332,8.9,17.9,76,0.00,,,0.00,meteobridge,2014-01-21 07:47:00,
2014-01-21 01:52:00,7.7,1.8,30.42,NNW,329,11.0,21.0,76,0.00,,,0.00,meteobridge,2014-01-21 07:52:00,
2014-01-21 01:57:00,7.5,1.2,30.43,NNW,338,14.1,19.9,75,0.00,,,0.00,meteobridge,2014-01-21 07:57:00,
2014-01-21 02:02:00,7.5,1.2,30.43,NNW,334,16.1,17.9,75,0.00,,,0.00,meteobridge,2014-01-21 08:02:00,
2014-01-21 02:07:00,7.3,1.0,30.43,NNW,336,15.0,23.0,75,0.00,,,0.00,meteobridge,2014-01-21 08:07:00,
2014-01-21 02:12:00,7.0,0.5,30.44,NNW,343,19.0,28.0,74,0.00,,,0.00,meteobridge,2014-01-21 08:12:00,
2014-01-21 02:18:00,6.8,0.3,30.44,NNW,330,11.0,19.0,74,0.00,,,0.00,meteobridge,2014-01-21 08:18:00,
2014-01-21 02:23:00,6.6,0.3,30.44,NW,318,16.1,16.1,75,0.00,,,0.00,meteobridge,2014-01-21 08:23:00,
2014-01-21 02:28:00,6.4,0.1,30.45,NNW,340,13.0,17.9,75,0.00,,,0.00,meteobridge,2014-01-21 08:28:00,
2014-01-21 02:33:00,6.3,0.3,30.45,NW,323,14.1,19.0,76,0.00,,,0.00,meteobridge,2014-01-21 08:33:00,
2014-01-21 02:38:00,6.3,0.0,30.45,NNW,327,17.9,21.0,75,0.00,,,0.00,meteobridge,2014-01-21 08:38:00,
2014-01-21 02:43:00,6.1,-0.2,30.46,NNW,332,13.0,23.0,75,0.00,,,0.00,meteobridge,2014-01-21 08:43:00,
2014-01-21 02:48:00,6.1,0.1,30.46,NW,325,25.1,25.1,76,0.00,,,0.00,meteobridge,2014-01-21 08:48:00,
2014-01-21 02:53:00,5.7,-0.2,30.46,NNW,334,17.9,19.9,76,0.00,,,0.00,meteobridge,2014-01-21 08:53:00,
2014-01-21 02:58:00,5.7,-0.2,30.46,North,351,19.9,23.9,76,0.00,,,0.00,meteobridge,2014-01-21 08:58:00,
2014-01-21 03:03:00,5.5,-0.9,30.46,North,355,15.0,21.9,74,0.00,,,0.00,meteobridge,2014-01-21 09:03:00,
2014-01-21 03:08:00,5.5,-0.4,30.46,North,9,12.1,17.9,76,0.00,,,0.00,meteobridge,2014-01-21 09:08:00,
2014-01-21 03:13:00,5.5,-0.9,30.46,NNW,344,11.0,16.1,74,0.00,,,0.00,meteobridge,2014-01-21 09:13:00,
2014-01-21 03:18:00,5.4,-1.1,30.47,North,355,13.0,23.0,74,0.00,,,0.00,meteobridge,2014-01-21 09:18:00,
2014-01-21 03:23:00,5.2,-1.3,30.47,North,355,14.1,21.0,74,0.00,,,0.00,meteobridge,2014-01-21 09:23:00,
2014-01-21 03:28:00,5.0,-1.8,30.47,NNW,336,17.9,17.9,73,0.00,,,0.00,meteobridge,2014-01-21 09:28:00,
2014-01-21 03:34:00,4.8,-1.7,30.47,North,5,13.0,16.1,74,0.00,,,0.00,meteobridge,2014-01-21 09:34:00,
2014-01-21 03:39:00,4.8,-2.2,30.47,NNW,333,6.0,15.0,72,0.00,,,0.00,meteobridge,2014-01-21 09:39:00,
2014-01-21 03:44:00,4.6,-2.0,30.48,NNW,341,10.1,15.0,73,0.00,,,0.00,meteobridge,2014-01-21 09:44:00,
2014-01-21 03:49:00,4.6,-1.8,30.48,North,350,8.1,16.1,74,0.00,,,0.00,meteobridge,2014-01-21 09:49:00,
2014-01-21 03:54:00,4.5,-1.7,30.48,NNW,327,12.1,14.1,75,0.00,,,0.00,meteobridge,2014-01-21 09:54:00,
2014-01-21 03:59:00,4.5,-1.7,30.49,NW,325,12.1,16.1,75,0.00,,,0.00,meteobridge,2014-01-21 09:59:00,
2014-01-21 04:04:00,4.3,-1.8,30.49,NW,320,13.0,17.9,75,0.00,,,0.00,meteobridge,2014-01-21 10:04:00,
2014-01-21 04:09:00,3.9,-2.7,30.50,North,351,16.1,23.9,73,0.00,,,0.00,meteobridge,2014-01-21 10:09:00,
2014-01-21 04:14:00,3.6,-3.5,30.50,North,350,15.0,19.0,72,0.00,,,0.00,meteobridge,2014-01-21 10:14:00,
2014-01-21 04:19:00,3.6,-3.6,30.50,North,355,12.1,14.1,71,0.00,,,0.00,meteobridge,2014-01-21 10:19:00,
2014-01-21 04:24:00,3.6,-3.5,30.50,NNW,341,11.0,15.0,72,0.00,,,0.00,meteobridge,2014-01-21 10:24:00,
2014-01-21 04:29:00,3.4,-3.6,30.50,NNW,343,13.0,15.0,72,0.00,,,0.00,meteobridge,2014-01-21 10:29:00,
2014-01-21 04:34:00,3.4,-3.8,30.51,NNW,346,8.9,14.1,71,0.00,,,0.00,meteobridge,2014-01-21 10:34:00,
2014-01-21 04:39:00,3.4,-3.6,30.50,NW,321,12.1,12.1,72,0.00,,,0.00,meteobridge,2014-01-21 10:39:00,
2014-01-21 04:44:00,3.2,-3.5,30.50,NNW,331,10.1,13.0,73,0.00,,,0.00,meteobridge,2014-01-21 10:44:00,
2014-01-21 04:49:00,3.2,-3.3,30.51,NNW,328,11.0,16.1,74,0.00,,,0.00,meteobridge,2014-01-21 10:49:00,
2014-01-21 04:54:00,3.0,-3.5,30.51,NNW,327,11.0,17.9,74,0.00,,,0.00,meteobridge,2014-01-21 10:54:00,
2014-01-21 04:59:00,2.8,-3.8,30.51,NNW,330,11.0,19.9,73,0.00,,,0.00,meteobridge,2014-01-21 10:59:00,
2014-01-21 05:04:00,2.7,-4.0,30.51,NW,317,12.1,16.1,73,0.00,,,0.00,meteobridge,2014-01-21 11:04:00,
2014-01-21 05:09:00,2.7,-4.4,30.51,NNW,339,10.1,13.0,72,0.00,,,0.00,meteobridge,2014-01-21 11:09:00,
2014-01-21 05:15:00,2.5,-4.5,30.52,NNW,335,10.1,12.1,72,0.00,,,0.00,meteobridge,2014-01-21 11:15:00,
2014-01-21 05:19:00,2.5,-4.2,30.52,NW,322,6.9,10.1,73,0.00,,,0.00,meteobridge,2014-01-21 11:19:00,
2014-01-21 05:24:00,2.5,-3.8,30.51,NW,321,11.0,14.1,74,0.00,,,0.00,meteobridge,2014-01-21 11:24:00,
2014-01-21 05:29:00,2.1,-4.2,30.51,NNW,347,12.1,12.1,74,0.00,,,0.00,meteobridge,2014-01-21 11:29:00,
2014-01-21 05:34:00,2.1,-4.5,30.51,NNW,338,8.9,13.0,73,0.00,,,0.00,meteobridge,2014-01-21 11:34:00,
2014-01-21 05:40:00,1.9,-4.7,30.51,NNW,328,10.1,12.1,73,0.00,,,0.00,meteobridge,2014-01-21 11:40:00,
2014-01-21 05:45:00,1.9,-4.4,30.51,NW,320,10.1,11.0,74,0.00,,,0.00,meteobridge,2014-01-21 11:45:00,
2014-01-21 05:50:00,1.8,-4.4,30.51,NW,323,8.1,12.1,75,0.00,,,0.00,meteobridge,2014-01-21 11:50:00,
2014-01-21 05:55:00,1.6,-4.5,30.51,NNW,330,8.9,12.1,75,0.00,,,0.00,meteobridge,2014-01-21 11:55:00,
2014-01-21 06:00:00,1.6,-4.5,30.51,NNW,335,6.0,14.1,75,0.00,,,0.00,meteobridge,2014-01-21 12:00:00,
2014-01-21 06:06:00,1.6,-4.5,30.52,NNW,333,8.9,8.9,75,0.00,,,0.00,meteobridge,2014-01-21 12:06:00,
2014-01-21 06:11:00,1.6,-4.2,30.52,NW,309,6.9,10.1,76,0.00,,,0.00,meteobridge,2014-01-21 12:11:00,
2014-01-21 06:16:00,1.4,-4.4,30.52,NNW,340,6.9,8.1,76,0.00,,,0.00,meteobridge,2014-01-21 12:16:00,
2014-01-21 06:21:00,1.2,-4.4,30.52,NW,326,10.1,10.1,77,0.00,,,0.00,meteobridge,2014-01-21 12:21:00,
2014-01-21 06:26:00,1.0,-4.5,30.52,North,355,11.0,13.0,77,0.00,,,0.00,meteobridge,2014-01-21 12:26:00,
2014-01-21 06:31:00,0.9,-4.9,30.52,NNW,336,10.1,13.0,76,0.00,,,0.00,meteobridge,2014-01-21 12:31:00,
2014-01-21 06:36:00,0.9,-4.9,30.52,NNW,331,13.0,13.0,76,0.00,,,0.00,meteobridge,2014-01-21 12:36:00,
2014-01-21 06:41:00,0.7,-5.1,30.51,NNW,346,10.1,12.1,76,0.00,,,0.00,meteobridge,2014-01-21 12:41:00,
2014-01-21 06:46:00,0.7,-5.1,30.51,NNW,336,8.9,12.1,76,0.00,,,0.00,meteobridge,2014-01-21 12:46:00,
2014-01-21 06:51:00,0.5,-5.3,30.51,NNW,346,8.9,11.0,76,0.00,,,0.00,meteobridge,2014-01-21 12:51:00,
2014-01-21 06:56:00,0.3,-5.4,30.51,NNW,333,8.1,11.0,76,0.00,,,0.00,meteobridge,2014-01-21 12:56:00,
2014-01-21 07:02:00,0.3,-5.4,30.52,NNW,330,8.1,8.1,76,0.00,,,0.00,meteobridge,2014-01-21 13:02:00,
2014-01-21 07:07:00,0.1,-5.6,30.52,NW,319,8.1,11.0,76,0.00,,,0.00,meteobridge,2014-01-21 13:07:00,
2014-01-21 07:11:00,0.1,-5.6,30.51,NW,314,8.1,8.9,76,0.00,,,0.00,meteobridge,2014-01-21 13:11:00,
2014-01-21 07:16:00,0.1,-5.6,30.51,NNW,342,8.9,10.1,76,0.00,,,0.00,meteobridge,2014-01-21 13:16:00,
2014-01-21 07:22:00,0.0,-5.8,30.51,NNW,333,6.0,8.1,76,0.00,,,0.00,meteobridge,2014-01-21 13:22:00,
2014-01-21 07:27:00,0.0,-5.8,30.51,NW,326,6.0,6.9,76,0.00,,,0.00,meteobridge,2014-01-21 13:27:00,
2014-01-21 07:32:00,0.0,-5.8,30.51,NNW,330,6.0,6.9,76,0.00,,,0.00,meteobridge,2014-01-21 13:32:00,
2014-01-21 07:37:00,0.0,-5.8,30.51,NW,319,6.9,8.1,76,0.00,,,0.00,meteobridge,2014-01-21 13:37:00,
2014-01-21 07:42:00,0.0,-5.8,30.51,NW,309,4.9,8.1,76,0.00,,,0.00,meteobridge,2014-01-21 13:42:00,
2014-01-21 07:47:00,0.0,-5.8,30.51,WNW,302,6.9,10.1,76,0.00,,,0.00,meteobridge,2014-01-21 13:47:00,
2014-01-21 07:52:00,0.1,-6.0,30.51,NW,323,8.9,8.9,75,0.00,,,0.00,meteobridge,2014-01-21 13:52:00,
2014-01-21 07:57:00,0.1,-5.6,30.51,NW,310,6.9,8.9,76,0.00,,,0.00,meteobridge,2014-01-21 13:57:00,
2014-01-21 08:02:00,0.5,-5.3,30.52,NNW,332,6.9,10.1,76,0.00,,,0.00,meteobridge,2014-01-21 14:02:00,
2014-01-21 08:07:00,0.7,-5.4,30.51,NW,306,6.9,10.1,75,0.00,,,0.00,meteobridge,2014-01-21 14:07:00,
2014-01-21 08:12:00,0.9,-5.3,30.51,NW,324,6.9,8.9,75,0.00,,,0.00,meteobridge,2014-01-21 14:12:00,
2014-01-21 08:17:00,1.0,-5.1,30.52,NW,324,6.9,11.0,75,0.00,,,0.00,meteobridge,2014-01-21 14:17:00,
2014-01-21 08:22:00,1.2,-5.1,30.51,NNW,331,6.9,8.9,74,0.00,,,0.00,meteobridge,2014-01-21 14:22:00,
2014-01-21 08:27:00,1.4,-4.9,30.52,WNW,302,8.1,8.9,74,0.00,,,0.00,meteobridge,2014-01-21 14:27:00,
2014-01-21 08:32:00,1.4,-4.7,30.52,WNW,302,11.0,12.1,75,0.00,,,0.00,meteobridge,2014-01-21 14:32:00,
2014-01-21 08:37:00,1.8,-4.5,30.52,NNW,327,8.1,12.1,74,0.00,,,0.00,meteobridge,2014-01-21 14:37:00,
2014-01-21 08:42:00,1.8,-4.9,30.51,NW,323,6.9,8.9,73,0.00,,,0.00,meteobridge,2014-01-21 14:42:00,
2014-01-21 08:47:00,1.9,-4.7,30.52,NNW,334,6.9,11.0,73,0.00,,,0.00,meteobridge,2014-01-21 14:47:00,
2014-01-21 08:53:00,2.3,-4.4,30.53,NW,319,8.1,12.1,73,0.00,,,0.00,meteobridge,2014-01-21 14:53:00,
2014-01-21 08:57:00,2.3,-4.4,30.52,WNW,297,8.1,11.0,73,0.00,,,0.00,meteobridge,2014-01-21 14:57:00,
2014-01-21 09:02:00,2.1,-4.9,30.52,NNW,327,4.0,8.9,72,0.00,,,0.00,meteobridge,2014-01-21 15:02:00,
2014-01-21 09:08:00,2.8,-3.8,30.52,NW,326,6.9,10.1,73,0.00,,,0.00,meteobridge,2014-01-21 15:08:00,
2014-01-21 09:13:00,2.8,-3.8,30.52,WNW,288,6.0,8.1,73,0.00,,,0.00,meteobridge,2014-01-21 15:13:00,
2014-01-21 09:18:00,2.8,-4.2,30.52,NW,307,6.9,8.9,72,0.00,,,0.00,meteobridge,2014-01-21 15:18:00,
2014-01-21 09:23:00,2.8,-4.4,30.52,NW,319,8.9,8.9,71,0.00,,,0.00,meteobridge,2014-01-21 15:23:00,
2014-01-21 09:28:00,3.0,-4.2,30.52,NNW,327,6.0,12.1,71,0.00,,,0.00,meteobridge,2014-01-21 15:28:00,
2014-01-21 09:33:00,3.0,-4.2,30.53,NW,316,10.1,10.1,71,0.00,,,0.00,meteobridge,2014-01-21 15:33:00,
2014-01-21 09:38:00,3.6,-3.6,30.52,NW,317,8.1,10.1,71,0.00,,,0.00,meteobridge,2014-01-21 15:38:00,
2014-01-21 09:43:00,3.9,-3.5,30.52,WNW,292,8.9,10.1,71,0.00,,,0.00,meteobridge,2014-01-21 15:43:00,
2014-01-21 09:48:00,3.9,-4.0,30.52,NW,314,6.0,8.9,69,0.00,,,0.00,meteobridge,2014-01-21 15:48:00,
2014-01-21 09:53:00,3.9,-4.0,30.52,NW,309,8.1,10.1,69,0.00,,,0.00,meteobridge,2014-01-21 15:53:00,
2014-01-21 09:58:00,4.1,-3.3,30.51,NNW,339,6.9,8.1,71,0.00,,,0.00,meteobridge,2014-01-21 15:58:00,
2014-01-21 10:03:00,4.3,-3.3,30.52,WNW,294,6.0,6.9,70,0.00,,,0.00,meteobridge,2014-01-21 16:03:00,
2014-01-21 10:08:00,4.6,-2.9,30.51,North,350,8.1,8.1,70,0.00,,,0.00,meteobridge,2014-01-21 16:08:00,
2014-01-21 10:13:00,4.5,-3.5,30.51,North,355,4.9,6.9,69,0.00,,,0.00,meteobridge,2014-01-21 16:13:00,
2014-01-21 10:18:00,4.5,-3.5,30.52,WNW,297,6.0,8.9,69,0.00,,,0.00,meteobridge,2014-01-21 16:18:00,
2014-01-21 10:23:00,4.1,-4.4,30.52,NNW,329,0.9,4.9,67,0.00,,,0.00,meteobridge,2014-01-21 16:23:00,
2014-01-21 10:28:00,4.5,-3.8,30.52,West,279,2.0,6.0,68,0.00,,,0.00,meteobridge,2014-01-21 16:28:00,
2014-01-21 10:34:00,4.8,-3.5,30.52,NNW,336,0.9,6.0,68,0.00,,,0.00,meteobridge,2014-01-21 16:34:00,
2014-01-21 10:39:00,5.0,-3.8,30.52,NW,313,4.9,6.9,66,0.00,,,0.00,meteobridge,2014-01-21 16:39:00,
2014-01-21 10:44:00,5.4,-2.9,30.52,West,278,4.0,4.9,68,0.00,,,0.00,meteobridge,2014-01-21 16:44:00,
2014-01-21 10:49:00,5.5,-3.3,30.51,WNW,286,4.9,6.0,66,0.00,,,0.00,meteobridge,2014-01-21 16:49:00,
2014-01-21 10:54:00,5.5,-3.3,30.51,NW,315,4.9,8.1,66,0.00,,,0.00,meteobridge,2014-01-21 16:54:00,
2014-01-21 10:59:00,5.5,-3.3,30.50,North,355,4.9,6.0,66,0.00,,,0.00,meteobridge,2014-01-21 16:59:00,
2014-01-21 11:04:00,5.5,-3.3,30.50,NW,307,0.9,4.0,66,0.00,,,0.00,meteobridge,2014-01-21 17:04:00,
2014-01-21 11:09:00,6.1,-3.5,30.50,NNW,332,2.0,4.9,64,0.00,,,0.00,meteobridge,2014-01-21 17:09:00,
2014-01-21 11:14:00,6.3,-3.3,30.50,WSW,255,4.9,8.1,64,0.00,,,0.00,meteobridge,2014-01-21 17:14:00,
2014-01-21 11:19:00,6.3,-3.3,30.50,WSW,255,4.0,4.9,64,0.00,,,0.00,meteobridge,2014-01-21 17:19:00,
2014-01-21 11:25:00,6.3,-3.6,30.49,WSW,248,2.0,2.9,63,0.00,,,0.00,meteobridge,2014-01-21 17:25:00,
2014-01-21 11:30:00,6.6,-3.3,30.49,NW,307,4.0,4.9,63,0.00,,,0.00,meteobridge,2014-01-21 17:30:00,
2014-01-21 11:35:00,7.2,-2.7,30.48,West,270,0.0,4.0,63,0.00,,,0.00,meteobridge,2014-01-21 17:35:00,
2014-01-21 11:40:00,7.8,-2.0,30.47,NE,36,4.0,5.0,64,0.00,,,0.00,weatherlink.com 1.10,2014-01-21 17:40:00,
2014-01-21 11:45:00,7.7,-2.9,30.47,NW,307,4.9,6.0,61,0.00,,,0.00,meteobridge,2014-01-21 17:45:00,
2014-01-21 11:50:00,7.3,-3.6,30.47,WNW,292,0.9,2.9,60,0.00,,,0.00,meteobridge,2014-01-21 17:50:00,
2014-01-21 11:56:00,8.1,-2.2,30.47,NW,311,2.9,6.0,62,0.00,,,0.00,meteobridge,2014-01-21 17:56:00,
2014-01-21 12:01:00,9.0,-0.8,30.47,WSW,241,0.9,6.0,64,0.00,,,0.00,meteobridge,2014-01-21 18:01:00,
2014-01-21 12:06:00,9.1,-1.7,30.46,WNW,298,4.0,6.9,61,0.00,,,0.00,meteobridge,2014-01-21 18:06:00,
2014-01-21 12:11:00,9.0,-1.7,30.46,WNW,302,4.0,6.9,61,0.00,,,0.00,meteobridge,2014-01-21 18:11:00,
2014-01-21 12:16:00,9.5,-1.7,30.45,WNW,296,6.9,6.9,60,0.00,,,0.00,meteobridge,2014-01-21 18:16:00,
2014-01-21 12:21:00,9.7,-1.5,30.44,West,270,0.0,4.0,60,0.00,,,0.00,meteobridge,2014-01-21 18:21:00,
2014-01-21 12:26:00,10.2,-1.3,30.44,West,265,0.9,8.1,59,0.00,,,0.00,meteobridge,2014-01-21 18:26:00,
2014-01-21 12:31:00,10.0,-1.5,30.44,WSW,248,0.9,6.0,59,0.00,,,0.00,meteobridge,2014-01-21 18:31:00,
2014-01-21 12:36:00,10.8,-1.1,30.43,NW,311,6.0,10.1,58,0.00,,,0.00,meteobridge,2014-01-21 18:36:00,
2014-01-21 12:41:00,10.4,-1.8,30.43,SW,217,4.9,8.1,57,0.00,,,0.00,meteobridge,2014-01-21 18:41:00,
2014-01-21 12:46:00,10.9,-0.9,30.42,WSW,238,0.9,8.9,58,0.00,,,0.00,meteobridge,2014-01-21 18:46:00,
2014-01-21 12:52:00,11.5,-1.5,30.41,SW,229,0.9,4.9,55,0.00,,,0.00,meteobridge,2014-01-21 18:52:00,
2014-01-21 12:57:00,11.7,-0.9,30.41,West,263,4.0,4.9,56,0.00,,,0.00,meteobridge,2014-01-21 18:57:00,
2014-01-21 13:02:00,11.8,-1.3,30.40,WSW,239,4.0,6.0,55,0.00,,,0.00,meteobridge,2014-01-21 19:02:00,
2014-01-21 13:07:00,11.7,-0.9,30.40,West,267,4.9,6.0,56,0.00,,,0.00,meteobridge,2014-01-21 19:07:00,
2014-01-21 13:12:00,12.0,-2.2,30.40,West,263,6.0,6.0,52,0.00,,,0.00,meteobridge,2014-01-21 19:12:00,
2014-01-21 13:17:00,12.4,-0.8,30.40,WSW,250,4.9,6.9,55,0.00,,,0.00,meteobridge,2014-01-21 19:17:00,
2014-01-21 13:22:00,12.4,-0.8,30.39,West,265,6.0,6.9,55,0.00,,,0.00,meteobridge,2014-01-21 19:22:00,
2014-01-21 13:27:00,12.9,-0.9,30.39,SSW,210,4.0,6.0,53,0.00,,,0.00,meteobridge,2014-01-21 19:27:00,
2014-01-21 13:32:00,12.6,-1.7,30.37,WSW,246,4.0,8.1,52,0.00,,,0.00,meteobridge,2014-01-21 19:32:00,
2014-01-21 13:37:00,12.4,-1.5,30.37,ESE,110,0.9,4.0,53,0.00,,,0.00,meteobridge,2014-01-21 19:37:00,
2014-01-21 13:42:00,12.9,-1.5,30.36,West,264,4.9,4.9,52,0.00,,,0.00,meteobridge,2014-01-21 19:42:00,
2014-01-21 13:47:00,13.3,-1.5,30.36,SW,219,2.0,6.0,51,0.00,,,0.00,meteobridge,2014-01-21 19:47:00,
2014-01-21 13:53:00,14.0,0.0,30.36,WSW,254,4.0,4.0,53,0.00,,,0.00,meteobridge,2014-01-21 19:53:00,
2014-01-21 13:58:00,14.2,-1.1,30.35,South,179,2.0,4.0,50,0.00,,,0.00,meteobridge,2014-01-21 19:58:00,
2014-01-21 14:03:00,14.7,0.0,30.35,SSW,205,0.9,6.0,51,0.00,,,0.00,meteobridge,2014-01-21 20:03:00,
2014-01-21 14:08:00,14.9,-0.8,30.34,SSW,198,6.9,10.1,49,0.00,,,0.00,meteobridge,2014-01-21 20:08:00,
2014-01-21 14:13:00,15.1,-0.6,30.33,SW,220,4.0,6.0,49,0.00,,,0.00,meteobridge,2014-01-21 20:13:00,
2014-01-21 14:18:00,14.5,-1.1,30.33,SSW,196,0.9,6.9,49,0.00,,,0.00,meteobridge,2014-01-21 20:18:00,
2014-01-21 14:23:00,15.3,-0.4,30.32,SE,136,6.9,8.1,49,0.00,,,0.00,meteobridge,2014-01-21 20:23:00,
2014-01-21 14:28:00,14.4,-1.7,30.32,South,177,6.9,8.1,48,0.00,,,0.00,meteobridge,2014-01-21 20:28:00,
2014-01-21 14:33:00,14.9,-2.2,30.32,SSE,151,4.0,6.9,46,0.00,,,0.00,meteobridge,2014-01-21 20:33:00,
2014-01-21 14:38:00,15.3,-0.9,30.31,ESE,123,6.0,8.1,48,0.00,,,0.00,meteobridge,2014-01-21 20:38:00,
2014-01-21 14:44:00,15.4,-1.1,30.30,SSE,159,6.9,10.1,47,0.00,,,0.00,meteobridge,2014-01-21 20:44:00,
2014-01-21 14:49:00,15.6,-0.9,30.30,South,180,4.9,8.9,47,0.00,,,0.00,meteobridge,2014-01-21 20:49:00,
2014-01-21 14:54:00,15.8,0.0,30.29,SSW,200,4.9,8.1,49,0.00,,,0.00,meteobridge,2014-01-21 20:54:00,
2014-01-21 14:59:00,16.0,-0.2,30.29,SSE,164,10.1,12.1,48,0.00,,,0.00,meteobridge,2014-01-21 20:59:00,
2014-01-21 15:04:00,15.4,-1.1,30.28,SSW,194,6.0,11.0,47,0.00,,,0.00,meteobridge,2014-01-21 21:04:00,
2014-01-21 15:09:00,15.4,-1.1,30.28,South,175,6.0,8.9,47,0.00,,,0.00,meteobridge,2014-01-21 21:09:00,
2014-01-21 15:14:00,16.2,-0.6,30.28,South,182,6.0,10.1,47,0.00,,,0.00,meteobridge,2014-01-21 21:14:00,
2014-01-21 15:19:00,16.3,-0.8,30.27,South,182,8.9,10.1,46,0.00,,,0.00,meteobridge,2014-01-21 21:19:00,
2014-01-21 15:24:00,16.3,-0.8,30.28,SE,144,6.9,10.1,46,0.00,,,0.00,meteobridge,2014-01-21 21:24:00,
2014-01-21 15:29:00,16.7,-0.9,30.27,SSW,199,4.0,8.9,45,0.00,,,0.00,meteobridge,2014-01-21 21:29:00,
2014-01-21 15:34:00,16.5,-1.1,30.28,SSW,211,6.9,11.0,45,0.00,,,0.00,meteobridge,2014-01-21 21:34:00,
2014-01-21 15:39:00,16.5,-1.1,30.27,SSE,166,6.0,8.9,45,0.00,,,0.00,meteobridge,2014-01-21 21:39:00,
2014-01-21 15:44:00,16.5,-1.1,30.27,SSE,167,8.9,12.1,45,0.00,,,0.00,meteobridge,2014-01-21 21:44:00,
2014-01-21 15:49:00,17.1,-0.2,30.27,SE,141,4.9,10.1,46,0.00,,,0.00,meteobridge,2014-01-21 21:49:00,
2014-01-21 15:55:00,16.9,-0.8,30.28,South,178,6.0,8.9,45,0.00,,,0.00,meteobridge,2014-01-21 21:55:00,
2014-01-21 16:00:00,17.1,-0.2,30.28,South,182,10.1,13.0,46,0.00,,,0.00,meteobridge,2014-01-21 22:00:00,
2014-01-21 16:05:00,17.2,0.5,30.28,SSW,195,4.9,6.9,47,0.00,,,0.00,meteobridge,2014-01-21 22:05:00,
2014-01-21 16:10:00,16.9,-0.4,30.28,SE,144,8.9,11.0,46,0.00,,,0.00,meteobridge,2014-01-21 22:10:00,
2014-01-21 16:15:00,16.9,-0.4,30.28,South,182,8.1,11.0,46,0.00,,,0.00,meteobridge,2014-01-21 22:15:00,
2014-01-21 16:20:00,16.9,-0.8,30.29,SSE,155,8.9,8.9,45,0.00,,,0.00,meteobridge,2014-01-21 22:20:00,
2014-01-21 16:25:00,16.9,-0.8,30.29,South,180,4.9,6.0,45,0.00,,,0.00,meteobridge,2014-01-21 22:25:00,
2014-01-21 16:30:00,17.1,-0.6,30.28,SSE,157,8.1,8.1,45,0.00,,,0.00,meteobridge,2014-01-21 22:30:00,
2014-01-21 16:36:00,17.1,-0.2,30.27,South,181,2.9,8.1,46,0.00,,,0.00,meteobridge,2014-01-21 22:36:00,
2014-01-21 16:41:00,17.1,-0.6,30.27,SSW,194,6.0,10.1,45,0.00,,,0.00,meteobridge,2014-01-21 22:41:00,
2014-01-21 16:46:00,17.1,-0.2,30.26,South,169,8.1,10.1,46,0.00,,,0.00,meteobridge,2014-01-21 22:46:00,
2014-01-21 16:51:00,17.2,0.5,30.25,SSE,150,10.1,11.0,47,0.00,,,0.00,meteobridge,2014-01-21 22:51:00,
2014-01-21 16:56:00,17.1,-0.2,30.25,SSE,157,8.1,11.0,46,0.00,,,0.00,meteobridge,2014-01-21 22:56:00,
2014-01-21 17:01:00,17.1,-0.2,30.24,SE,141,6.9,11.0,46,0.00,,,0.00,meteobridge,2014-01-21 23:01:00,
2014-01-21 17:06:00,17.1,-0.2,30.24,SSE,167,11.0,12.1,46,0.00,,,0.00,meteobridge,2014-01-21 23:06:00,
2014-01-21 17:11:00,17.2,0.5,30.24,SSE,159,10.1,12.1,47,0.00,,,0.00,meteobridge,2014-01-21 23:11:00,
2014-01-21 17:16:00,17.2,0.5,30.24,SSE,149,8.9,14.1,47,0.00,,,0.00,meteobridge,2014-01-21 23:16:00,
2014-01-21 17:21:00,17.1,0.3,30.24,SSE,151,8.1,10.1,47,0.00,,,0.00,meteobridge,2014-01-21 23:21:00,
2014-01-21 17:26:00,17.1,0.7,30.24,South,190,6.9,11.0,48,0.00,,,0.00,meteobridge,2014-01-21 23:26:00,
2014-01-21 17:31:00,17.1,0.3,30.24,SSE,156,11.0,11.0,47,0.00,,,0.00,meteobridge,2014-01-21 23:31:00,
2014-01-21 17:36:00,17.1,0.3,30.24,SSE,167,8.1,8.1,47,0.00,,,0.00,meteobridge,2014-01-21 23:36:00,
2014-01-21 17:42:00,17.1,0.3,30.24,South,171,8.1,11.0,47,0.00,,,0.00,meteobridge,2014-01-21 23:42:00,
2014-01-21 17:47:00,17.1,-0.2,30.24,South,182,6.9,12.1,46,0.00,,,0.00,meteobridge,2014-01-21 23:47:00,
2014-01-21 17:52:00,17.1,0.3,30.25,South,189,6.0,8.1,47,0.00,,,0.00,meteobridge,2014-01-21 23:52:00,
2014-01-21 17:57:00,17.2,0.5,30.26,SSW,204,2.9,4.9,47,0.00,,,0.00,meteobridge,2014-01-21 23:57:00,
2014-01-21 18:02:00,17.2,0.5,30.27,SW,217,4.9,6.9,47,0.00,,,0.00,meteobridge,2014-01-22 00:02:00,
2014-01-21 18:07:00,17.2,0.0,30.26,SSE,154,6.9,8.9,46,0.00,,,0.00,meteobridge,2014-01-22 00:07:00,
2014-01-21 18:12:00,17.4,0.7,30.26,South,191,4.9,8.9,47,0.00,,,0.00,meteobridge,2014-01-22 00:12:00,
2014-01-21 18:17:00,17.4,0.7,30.25,SSW,199,4.9,8.1,47,0.00,,,0.00,meteobridge,2014-01-22 00:17:00,
2014-01-21 18:22:00,17.6,1.2,30.25,South,178,4.9,8.1,48,0.00,,,0.00,meteobridge,2014-01-22 00:22:00,
2014-01-21 18:27:00,17.6,1.2,30.24,South,189,4.0,8.1,48,0.00,,,0.00,meteobridge,2014-01-22 00:27:00,
2014-01-21 18:32:00,17.6,0.9,30.24,South,180,6.0,11.0,47,0.00,,,0.00,meteobridge,2014-01-22 00:32:00,
2014-01-21 18:40:00,17.6,0.9,30.24,South,183,6.0,-999.0,47,0.00,,,0.00,meteobridge,2014-01-22 00:40:00,
2014-01-21 18:45:00,17.6,0.9,30.24,South,188,6.9,8.1,47,0.00,,,0.00,meteobridge,2014-01-22 00:45:00,
2014-01-21 18:51:00,17.8,0.5,30.25,SSW,196,6.0,8.9,46,0.00,,,0.00,meteobridge,2014-01-22 00:51:00,
2014-01-21 18:56:00,18.0,1.6,30.24,South,185,6.9,8.9,48,0.00,,,0.00,meteobridge,2014-01-22 00:56:00,
2014-01-21 19:01:00,18.0,1.0,30.25,SSW,200,4.9,8.1,47,0.00,,,0.00,meteobridge,2014-01-22 01:01:00,
2014-01-21 19:06:00,18.1,1.2,30.25,South,190,4.9,6.9,47,0.00,,,0.00,meteobridge,2014-01-22 01:06:00,
2014-01-21 19:11:00,18.1,0.9,30.25,South,183,8.1,10.1,46,0.00,,,0.00,meteobridge,2014-01-22 01:11:00,
2014-01-21 19:16:00,18.1,0.3,30.25,SW,217,6.0,8.9,45,0.00,,,0.00,meteobridge,2014-01-22 01:16:00,
2014-01-21 19:22:00,18.1,0.3,30.25,SW,229,6.9,8.1,45,0.00,,,0.00,meteobridge,2014-01-22 01:22:00,
2014-01-21 19:27:00,18.3,0.5,30.25,South,175,8.1,8.9,45,0.00,,,0.00,meteobridge,2014-01-22 01:27:00,
2014-01-21 19:32:00,18.3,0.5,30.25,SSW,192,2.0,6.9,45,0.00,,,0.00,meteobridge,2014-01-22 01:32:00,
2014-01-21 19:37:00,18.3,0.5,30.25,South,188,4.0,4.9,45,0.00,,,0.00,meteobridge,2014-01-22 01:37:00,
2014-01-21 19:42:00,18.3,0.5,30.25,South,186,6.9,6.9,45,0.00,,,0.00,meteobridge,2014-01-22 01:42:00,
2014-01-21 19:47:00,18.5,0.7,30.25,South,180,4.0,6.9,45,0.00,,,0.00,meteobridge,2014-01-22 01:47:00,
2014-01-21 19:52:00,18.5,0.7,30.24,South,188,4.9,6.0,45,0.00,,,0.00,meteobridge,2014-01-22 01:52:00,
2014-01-21 19:57:00,18.5,0.1,30.24,South,189,4.9,8.1,44,0.00,,,0.00,meteobridge,2014-01-22 01:57:00,
2014-01-21 20:42:00,-999.0,-99.9,30.22,North,-999,-999.0,-999.0,-999,0.00,,,0.00,meteobridge,2014-01-22 02:42:00,
2014-01-21 20:47:00,19.0,0.7,30.22,SSE,159,8.1,8.9,44,0.00,,,0.00,meteobridge,2014-01-22 02:47:00,
2014-01-21 20:52:00,19.2,0.9,30.22,SSE,164,8.1,8.9,44,0.00,,,0.00,meteobridge,2014-01-22 02:52:00,
2014-01-21 20:57:00,19.2,1.4,30.22,South,169,6.9,6.9,45,0.00,,,0.00,meteobridge,2014-01-22 02:57:00,
2014-01-21 21:02:00,19.2,1.4,30.21,South,186,8.1,11.0,45,0.00,,,0.00,meteobridge,2014-01-22 03:02:00,
2014-01-21 21:07:00,19.2,1.4,30.21,South,171,6.9,8.9,45,0.00,,,0.00,meteobridge,2014-01-22 03:07:00,
2014-01-21 21:12:00,19.2,1.4,30.21,SSE,166,6.0,8.9,45,0.00,,,0.00,meteobridge,2014-01-22 03:12:00,
2014-01-21 21:17:00,19.2,1.4,30.21,South,172,8.1,8.9,45,0.00,,,0.00,meteobridge,2014-01-22 03:17:00,
2014-01-21 21:22:00,19.2,1.4,30.21,South,169,6.9,8.1,45,0.00,,,0.00,meteobridge,2014-01-22 03:22:00,
2014-01-21 21:44:00,-999.0,-99.9,30.21,North,-999,-999.0,-999.0,-999,0.00,,,0.00,meteobridge,2014-01-22 03:44:00,
2014-01-21 21:49:00,19.4,1.9,30.20,SSE,162,6.0,8.9,46,0.00,,,0.00,meteobridge,2014-01-22 03:49:00,
2014-01-21 21:55:00,19.4,1.9,30.20,South,177,6.0,8.1,46,0.00,,,0.00,meteobridge,2014-01-22 03:55:00,
2014-01-21 22:15:00,19.6,2.1,30.20,South,180,2.0,4.9,46,0.00,,,0.00,meteobridge,2014-01-22 04:15:00,
2014-01-21 22:20:00,19.6,2.7,30.20,SSW,192,4.9,6.0,47,0.00,,,0.00,meteobridge,2014-01-22 04:20:00,
2014-01-21 22:25:00,19.8,2.3,30.19,SSW,200,4.0,10.1,46,0.00,,,0.00,meteobridge,2014-01-22 04:25:00,
2014-01-21 22:30:00,19.8,2.3,30.19,SSW,197,6.0,8.1,46,0.00,,,0.00,meteobridge,2014-01-22 04:30:00,
2014-01-21 22:35:00,19.8,2.3,30.19,South,181,4.9,10.1,46,0.00,,,0.00,meteobridge,2014-01-22 04:35:00,
2014-01-21 22:40:00,19.8,2.8,30.18,South,189,4.9,8.1,47,0.00,,,0.00,meteobridge,2014-01-22 04:40:00,
2014-01-21 22:45:00,19.8,2.8,30.18,SW,219,6.0,6.9,47,0.00,,,0.00,meteobridge,2014-01-22 04:45:00,
2014-01-21 22:50:00,19.8,2.3,30.18,South,170,8.1,13.0,46,0.00,,,0.00,meteobridge,2014-01-22 04:50:00,
2014-01-21 22:56:00,19.9,3.0,30.17,SSW,207,6.0,10.1,47,0.00,,,0.00,meteobridge,2014-01-22 04:56:00,
2014-01-21 23:01:00,19.9,3.0,30.18,SSW,193,8.1,8.9,47,0.00,,,0.00,meteobridge,2014-01-22 05:01:00,
2014-01-21 23:07:00,19.9,3.0,30.18,South,183,4.0,6.9,47,0.00,,,0.00,meteobridge,2014-01-22 05:07:00,
2014-01-21 23:12:00,19.9,3.0,30.17,SSE,167,4.9,8.1,47,0.00,,,0.00,meteobridge,2014-01-22 05:12:00,
2014-01-21 23:17:00,20.1,3.6,30.17,SSW,202,0.9,6.9,48,0.00,,,0.00,meteobridge,2014-01-22 05:17:00,
2014-01-21 23:22:00,20.1,3.2,30.17,SW,215,4.9,6.0,47,0.00,,,0.00,meteobridge,2014-01-22 05:22:00,
2014-01-21 23:27:00,20.1,3.2,30.17,SSW,201,4.0,6.9,47,0.00,,,0.00,meteobridge,2014-01-22 05:27:00,
2014-01-21 23:32:00,20.3,3.7,30.16,SSW,194,6.0,6.9,48,0.00,,,0.00,meteobridge,2014-01-22 05:32:00,
2014-01-21 23:37:00,20.5,3.9,30.16,SW,219,6.0,10.1,48,0.00,,,0.00,meteobridge,2014-01-22 05:37:00,
2014-01-21 23:42:00,20.5,3.9,30.16,SW,214,8.9,10.1,48,0.00,,,0.00,meteobridge,2014-01-22 05:42:00,
2014-01-21 23:47:00,20.5,3.9,30.16,SW,222,8.9,8.9,48,0.00,,,0.00,meteobridge,2014-01-22 05:47:00,
2014-01-21 23:53:00,20.7,4.1,30.15,SW,229,8.9,8.9,48,0.00,,,0.00,meteobridge,2014-01-22 05:53:00,
2014-01-21 23:58:00,20.8,3.7,30.15,SW,218,6.9,8.9,47,0.00,,,0.00,meteobridge,2014-01-22 05:58:00,